GEFSMW_500_meanwind_276.txt.gz
Wind_Speed
13 11 10 10 10 10 11 10 10 9 10 8 7 6 5 4 3 4 4 3 2 2 2 2 1 2 2 2 3 3 4 5 4 5 5 6 6 6 6 6 6 6 6
12 11 10 10 10 10 10 9 9 9 9 8 8 6 5 4 4 3 3 3 3 3 2 2 2 2 2 3 3 4 4 5 5 5 6 6 7 7 7 7 7 6 6
10 11 10 9 9 9 9 9 9 9 9 8 8 7 5 4 3 3 3 3 2 3 3 3 2 3 4 4 4 5 5 5 5 5 6 6 6 7 6 6 7 6 7
9 10 10 9 9 10 9 9 9 9 9 8 8 7 6 4 3 3 3 3 2 2 2 3 4 4 4 4 5 6 5 5 4 5 6 6 5 6 6 6 7 7 8
8 9 9 10 9 9 9 10 9 9 9 8 7 7 6 5 3 3 3 3 2 2 2 3 4 5 4 5 6 6 5 4 4 5 5 6 6 6 7 6 6 7 7
8 8 9 10 10 9 9 9 9 9 9 9 8 6 5 5 5 4 4 3 3 3 4 4 4 5 6 6 5 5 5 5 5 6 6 6 6 7 7 7 7 7 8
9 9 9 10 11 10 9 9 9 9 10 9 8 6 5 5 5 5 4 4 4 4 4 4 5 5 6 6 5 5 5 6 6 7 7 7 7 7 7 7 8 8 9
9 9 9 9 10 11 10 9 9 9 9 9 9 7 6 6 6 5 6 6 5 4 4 4 5 5 5 6 6 6 6 6 6 7 8 7 7 8 8 8 9 9 9
10 10 9 10 10 10 10 10 10 10 10 10 10 9 8 6 6 6 6 6 5 5 5 5 5 6 6 6 6 6 7 6 6 7 8 8 8 8 8 9 9 10 10
11 11 11 11 11 10 10 10 10 10 10 10 10 10 9 7 7 6 7 7 6 5 5 5 6 7 6 6 6 6 7 7 7 7 8 8 8 9 9 10 10 10 10
11 11 12 12 11 11 11 11 10 10 10 10 10 10 9 9 8 7 7 6 6 5 6 6 7 7 7 7 7 7 7 8 8 8 8 8 8 9 10 11 11 11 12
12 12 13 13 13 13 12 12 12 11 11 11 10 10 10 10 9 8 7 7 6 6 6 6 7 7 7 7 8 9 9 9 9 9 9 9 9 10 11 11 12 12 13
14 14 15 15 14 14 14 13 13 13 12 12 11 11 11 11 10 9 8 8 8 7 7 7 7 8 8 8 9 9 9 9 10 9 9 9 10 11 12 12 13 14 15
16 16 16 16 16 16 15 15 15 14 13 13 12 11 11 11 10 9 9 9 9 8 8 8 8 8 9 9 10 10 10 10 10 10 10 10 11 12 13 14 15 15 16
17 17 18 18 17 17 16 16 16 15 14 13 13 12 11 11 10 9 9 9 10 9 9 9 10 10 11 11 11 11 11 11 11 11 12 12 12 14 15 16 16 16 17
19 19 19 19 19 18 17 17 16 16 15 13 12 12 12 11 10 10 10 10 11 11 11 11 11 11 11 11 12 12 12 13 13 13 13 14 15 16 17 18 17 18 18
22 20 20 20 20 20 18 18 17 17 15 14 13 13 13 12 12 12 12 12 12 12 12 12 12 12 12 13 13 14 13 14 14 14 15 16 17 18 18 19 19 19 20
24 22 21 22 21 20 19 18 18 17 16 15 15 14 14 13 13 13 13 13 13 14 14 14 14 14 14 15 15 15 15 15 16 17 17 18 19 19 21 21 21 22 23
26 25 24 23 22 21 20 20 19 18 17 16 16 15 15 14 14 15 15 15 16 15 15 15 15 15 16 16 17 17 17 18 18 19 19 20 21 22 22 23 24 24 25
28 26 25 24 23 22 21 21 20 19 18 18 17 17 17 17 16 16 16 17 16 16 16 16 16 17 17 18 19 19 20 20 21 21 22 23 23 24 24 25 25 25 26
29 28 26 25 25 23 22 21 20 20 20 20 19 19 19 18 18 18 18 18 18 18 18 18 18 19 19 19 20 21 21 22 23 23 23 24 24 25 26 27 27 27 28
30 29 27 26 25 25 24 23 22 22 21 21 20 21 21 20 20 20 20 20 20 20 20 20 20 21 21 21 22 23 23 24 25 25 25 25 26 27 27 28 28 29 29
31 30 28 28 27 26 26 25 25 24 24 23 22 22 22 22 22 22 22 22 22 22 22 22 22 22 22 23 23 25 26 26 26 26 27 27 27 28 29 29 29 30 30
32 31 29 28 28 29 28 27 27 26 26 25 24 24 24 23 23 23 23 23 23 23 23 24 24 25 25 25 25 26 27 27 27 28 28 29 29 29 29 29 29 30 30
32 31 31 30 30 30 30 30 29 28 28 27 26 25 24 24 24 24 24 24 24 25 25 26 26 26 26 27 27 27 28 28 28 29 29 29 30 30 30 30 30 31 31
31 32 31 31 31 31 31 31 31 30 30 29 28 27 26 26 26 25 25 25 25 26 27 28 28 28 28 28 28 28 28 28 28 29 29 30 30 30 30 31 31 31 31

GEFSMW_500_meanwind_282.txt.gz
Wind_Speed
12 11 12 12 12 12 12 11 11 11 10 10 9 8 7 7 7 6 5 5 5 5 4 4 4 3 3 2 2 2 1 1 2 3 3 2 2 2 3 3 3 4 5
11 11 11 11 11 11 11 11 11 11 11 10 10 9 9 8 7 7 6 5 4 4 4 4 4 4 4 3 2 2 2 3 3 4 3 2 2 3 3 4 4 4 4
10 9 9 10 10 10 10 10 10 11 11 10 9 9 8 8 7 6 5 5 5 4 4 3 3 3 3 3 3 3 3 3 4 4 3 2 2 3 3 3 4 4 5
9 8 7 8 9 10 10 10 10 10 10 10 9 8 8 7 6 5 5 5 5 4 3 3 3 3 3 3 3 4 3 4 4 3 3 2 3 2 3 4 4 5 5
8 7 6 7 8 9 9 9 9 9 8 8 8 8 6 6 5 5 4 4 4 3 2 1 1 2 3 3 3 3 4 4 4 3 3 3 3 2 3 3 4 4 5
7 7 6 7 7 8 8 9 8 8 7 7 7 7 7 5 5 4 3 4 3 3 2 2 1 2 3 3 3 3 3 3 3 3 2 3 3 3 3 3 4 4 4
6 7 6 6 7 7 8 8 8 7 6 6 6 6 6 5 4 4 5 4 4 3 3 2 2 3 4 3 4 3 3 4 3 3 2 3 3 4 4 4 4 4 5
6 6 6 6 6 7 7 7 8 7 6 5 5 5 5 5 4 4 4 4 4 3 3 3 2 3 4 4 4 3 3 4 4 3 3 4 4 4 4 5 5 5 5
5 5 5 7 7 7 6 6 7 8 7 6 6 5 5 5 5 5 4 4 4 3 3 2 2 3 3 4 4 4 3 4 3 4 4 4 4 4 4 5 6 6 6
6 5 4 6 7 7 6 6 7 8 8 7 6 6 5 5 6 6 5 4 3 3 2 2 2 2 2 3 3 4 4 4 4 4 5 5 5 5 5 5 6 6 7
8 8 7 7 7 7 7 7 7 8 9 8 7 6 5 5 5 5 5 4 4 3 3 3 3 3 3 4 4 4 4 5 5 5 5 5 5 5 6 6 7 8 8
8 9 9 8 8 7 7 8 8 8 9 9 8 7 6 5 5 5 5 4 4 4 3 4 4 4 4 5 5 6 5 6 7 7 6 6 7 7 7 8 9 10 10
11 10 10 9 8 8 8 8 8 9 9 9 8 8 7 7 7 6 6 5 5 5 4 4 4 5 5 6 6 6 7 7 8 7 7 8 8 8 9 10 11 11 11
13 13 12 12 11 10 9 8 8 9 9 9 9 8 8 7 7 7 7 7 7 6 6 6 6 6 7 7 8 8 8 9 9 8 9 9 9 10 10 10 11 12 13
16 15 14 14 13 12 11 10 9 9 9 9 9 9 9 9 8 9 8 8 8 8 8 8 9 9 9 9 9 9 9 9 10 10 10 10 11 12 12 12 12 13 14
17 16 16 16 15 14 14 12 11 10 10 10 10 10 10 10 10 10 9 8 8 8 8 9 10 10 10 11 11 11 11 11 11 11 12 12 13 13 13 13 14 14 15
21 19 19 19 18 17 16 14 13 13 12 12 11 12 11 11 11 11 11 10 10 10 10 10 11 11 11 12 12 12 12 12 13 13 14 14 14 15 15 16 16 17 18
23 21 21 21 20 20 18 17 15 14 14 13 13 13 13 13 13 12 12 12 11 11 11 12 12 12 13 13 14 14 14 14 14 14 15 15 16 17 17 18 18 19 20
25 24 23 22 22 21 21 20 18 17 16 15 15 14 14 14 14 14 13 13 13 13 13 14 14 14 15 15 15 16 16 16 16 16 17 18 18 19 19 19 20 20 21
27 26 25 24 23 23 23 22 20 19 19 18 17 17 17 16 16 15 15 15 15 15 15 15 16 16 16 17 18 18 18 18 18 18 18 19 20 21 22 21 21 22 23
29 28 26 25 24 24 24 24 23 22 21 20 19 18 17 17 17 17 17 17 17 18 17 17 17 18 18 18 18 19 19 20 20 19 20 20 21 21 21 22 22 23 24
31 30 28 26 25 26 25 25 24 24 24 23 22 21 20 20 19 19 19 19 19 19 19 19 19 19 19 19 20 20 20 20 21 21 20 20 21 21 21 22 23 24 24
31 30 29 28 27 26 26 26 26 25 24 25 24 24 23 22 22 21 21 21 21 21 21 21 20 20 20 21 21 21 21 21 22 21 21 21 22 23 23 23 24 25 25
32 31 30 29 28 28 28 27 27 26 26 25 25 25 25 25 24 23 22 23 23 22 22 22 22 22 22 22 22 22 22 22 23 23 23 23 24 24 25 25 26 26 27
32 31 31 30 28 28 28 27 27 27 27 27 27 27 27 26 25 25 25 24 24 24 24 23 23 24 23 23 23 23 23 23 24 24 24 24 25 26 26 27 27 28 28
33 32 32 30 29 29 29 28 28 28 28 28 27 27 27 27 27 27 27 27 26 26 26 25 25 25 25 25 25 25 25 25 25 25 26 26 27 27 28 28 28 29 29

GEFSMW_500_meanwind_288.txt.gz
Wind_Speed
8 8 9 9 9 9 10 10 10 9 9 9 8 7 6 6 5 5 4 3 4 3 3 2 2 2 3 2 2 1 1 2 3 4 3 3 2 2 2 3 4 4 5
8 8 9 8 9 9 9 10 9 9 8 8 8 7 6 6 5 5 4 3 3 3 2 2 2 3 2 2 2 1 1 2 3 3 3 3 3 3 2 2 3 3 4
8 7 7 8 7 7 8 9 8 8 7 7 7 7 6 5 4 4 4 3 2 2 2 1 2 2 1 2 2 2 2 3 4 4 3 3 3 2 2 2 2 3 3
7 6 5 5 6 6 7 7 7 7 7 6 6 6 5 4 4 3 3 3 2 2 2 2 2 2 1 1 2 2 3 3 3 4 4 4 3 3 3 3 3 3 4
6 6 4 4 5 5 7 7 7 6 6 6 6 5 4 4 3 3 2 2 1 1 1 1 1 1 1 2 2 3 3 4 4 4 4 4 3 4 3 3 3 3 5
6 5 4 3 4 5 6 7 6 5 5 5 5 5 4 4 3 2 2 1 1 1 1 2 2 2 3 2 3 4 4 4 4 4 4 4 4 4 4 4 4 4 6
5 4 4 4 4 5 5 5 4 4 4 4 5 4 4 4 3 2 2 2 2 1 3 4 4 4 4 4 4 4 4 5 5 4 4 5 5 4 4 4 5 6 6
4 4 4 4 4 5 5 5 4 4 3 3 4 4 4 4 4 3 3 3 3 4 5 5 5 6 5 5 5 4 5 5 5 5 5 6 6 6 5 5 5 6 7
4 3 4 5 5 6 5 6 5 5 4 3 4 4 4 4 4 3 4 4 5 5 6 6 6 6 6 5 5 5 6 6 6 6 6 7 7 7 6 5 6 6 7
6 5 6 6 6 6 6 7 6 6 6 4 4 5 5 4 4 4 5 5 6 6 6 7 7 6 6 6 6 6 7 7 7 7 7 8 8 8 7 7 8 8 9
7 7 8 7 7 7 7 7 7 7 6 5 5 6 6 6 6 5 5 6 7 7 6 6 6 6 6 7 7 7 8 8 8 8 8 8 8 8 8 8 9 9 10
10 10 9 8 8 9 8 8 8 8 8 8 7 7 7 7 7 7 7 7 7 7 6 6 7 7 8 9 9 9 9 9 9 9 9 9 9 9 9 10 11 11 11
12 12 11 11 10 10 10 10 10 10 9 9 9 9 9 9 9 9 9 8 8 7 6 6 7 8 9 10 10 10 9 9 10 10 10 10 10 11 11 11 12 12 13
14 14 13 13 12 12 12 12 11 11 11 11 10 10 11 11 11 11 10 9 8 8 8 8 9 9 9 10 10 10 10 11 11 12 12 12 12 12 12 13 13 13 14
17 16 15 15 15 14 13 13 13 12 12 12 12 13 12 11 11 11 10 10 10 10 9 9 10 10 10 11 11 11 12 12 13 13 13 14 14 14 14 15 15 15 15
19 18 17 16 16 16 16 15 15 15 14 14 14 14 14 13 12 13 12 12 12 11 11 11 11 11 11 12 13 13 13 14 14 15 15 15 15 16 15 15 16 16 17
22 21 19 18 19 18 18 18 18 17 16 16 15 15 15 15 15 14 14 14 14 13 13 13 13 13 13 13 14 15 15 16 17 16 16 16 17 16 16 16 17 17 18
24 23 22 21 21 21 21 21 21 19 18 18 17 17 17 17 17 17 16 16 16 16 15 14 15 15 15 16 17 17 18 18 18 18 18 18 18 19 18 19 18 18 18
26 25 24 24 24 24 23 23 22 21 20 19 18 19 19 18 18 18 18 18 18 18 17 17 16 17 17 17 18 18 19 19 19 19 20 20 20 20 20 20 20 19 20
28 28 27 26 26 26 25 24 23 23 21 20 20 20 20 19 19 19 19 19 19 19 19 18 17 17 17 18 18 19 19 19 19 19 20 21 21 21 21 21 20 20 20
31 30 29 29 28 28 28 26 25 24 23 23 22 21 21 21 21 21 21 21 20 20 20 19 19 19 19 19 19 20 20 20 20 20 21 21 21 21 21 22 21 21 21
32 32 31 30 30 30 30 29 28 26 24 24 24 23 23 23 23 23 23 23 22 21 21 21 21 21 21 21 20 21 22 23 22 22 22 21 22 21 22 22 22 23 23
34 33 32 32 31 31 31 30 30 28 27 27 26 26 26 25 25 25 25 25 24 23 23 22 22 21 21 21 22 21 22 23 23 23 22 22 23 23 24 24 24 25 25
35 34 34 33 32 32 32 31 30 30 29 29 28 28 28 28 27 27 27 26 25 25 24 23 22 23 23 23 23 24 24 24 24 25 24 24 25 26 26 26 27 27 27
36 36 35 34 33 33 32 31 31 30 30 30 30 30 30 28 28 28 28 28 28 27 27 26 25 25 25 25 26 26 26 26 26 27 27 27 27 28 28 28 29 30 30
36 36 35 34 34 33 33 32 31 31 32 31 30 31 31 31 30 28 28 28 28 27 27 28 27 27 27 27 28 29 29 29 29 29 29 29 30 31 30 30 31 31 32

GEFSMW_500_meanwind_294.txt.gz
Wind_Speed
8 8 7 7 7 7 7 6 6 6 5 4 4 4 3 2 2 2 2 1 1 2 1 1 1 1 0 0 0 1 1 0 1 1 2 3 3 3 2 3 3 3 4
8 8 8 8 8 7 7 7 7 6 5 4 3 3 3 2 1 1 1 1 1 2 1 1 1 0 0 0 1 1 1 1 1 1 2 3 3 2 2 3 3 3 4
8 8 8 7 8 7 8 8 6 5 5 4 3 3 2 2 2 2 1 1 1 1 2 1 1 1 1 1 0 0 2 2 2 2 3 3 4 3 3 4 4 4 4
7 7 7 7 7 7 7 7 6 5 5 5 4 3 2 2 2 2 1 1 1 1 0 1 1 0 1 1 1 1 2 2 3 3 3 3 4 4 4 4 4 4 4
7 7 7 7 7 7 7 6 6 5 5 5 5 4 3 3 3 2 1 1 1 1 1 1 2 2 1 2 2 2 2 3 3 4 4 3 4 4 4 5 5 5 4
7 7 8 7 6 6 7 6 6 6 6 5 5 5 4 3 3 3 2 2 2 2 2 2 3 3 3 3 3 3 4 4 4 4 4 4 5 5 5 5 6 6 6
7 8 8 8 7 7 7 6 6 6 7 6 5 5 4 4 3 3 3 2 3 3 3 3 3 4 4 4 5 5 5 5 6 5 5 6 6 6 7 7 7 7 7
7 8 8 8 9 8 8 7 7 7 7 7 6 5 4 4 4 4 4 4 4 5 5 5 5 6 6 7 7 7 7 7 7 7 7 7 8 8 8 8 9 9 9
8 8 8 8 9 9 8 8 8 8 8 7 7 7 6 6 5 5 5 6 6 6 7 7 7 7 8 9 9 9 8 9 9 9 9 9 10 10 10 10 11 10 10
9 8 9 9 9 9 9 9 8 9 9 9 8 8 8 6 6 7 7 7 8 8 8 8 9 9 9 10 10 10 10 10 9 9 10 10 11 11 12 12 12 12 11
10 10 9 10 11 11 11 10 10 10 9 9 9 8 9 8 8 9 9 9 9 9 10 10 10 10 10 10 10 10 10 11 10 10 10 11 11 12 12 13 13 13 13
12 12 11 11 12 12 12 12 11 11 10 10 9 9 9 9 10 10 10 10 11 11 11 11 11 11 11 10 10 10 10 10 10 11 11 11 12 12 13 13 14 14 14
13 14 14 14 13 13 13 13 13 12 12 11 11 11 11 11 11 11 11 11 12 12 12 12 11 11 11 10 10 10 11 11 12 12 12 12 13 13 14 14 14 14 14
15 15 15 15 15 15 15 14 14 14 13 13 13 13 13 13 13 12 12 12 12 13 13 13 12 12 11 10 11 12 12 12 12 12 13 13 14 14 14 14 15 15 15
18 18 18 17 17 17 17 16 16 16 16 15 15 15 15 15 15 14 14 14 14 14 14 13 13 13 12 11 12 12 13 13 13 13 14 14 14 15 15 15 16 16 17
20 20 20 20 20 19 19 19 18 18 18 18 18 18 18 17 17 17 16 16 16 16 15 15 14 14 13 13 13 13 14 14 14 14 15 15 15 16 16 17 17 17 18
23 23 23 23 22 21 21 21 20 20 20 20 20 20 20 20 19 19 18 17 17 16 16 15 15 14 14 14 14 15 15 15 16 16 16 16 16 17 18 19 19 18 18
26 26 26 25 24 24 24 23 22 22 21 21 22 22 22 21 21 21 21 20 19 18 18 17 17 16 15 15 15 15 15 16 16 17 18 18 18 18 19 19 20 20 19
27 27 27 27 26 26 26 25 25 24 23 23 23 23 23 22 22 21 21 20 20 19 19 19 19 18 17 17 18 18 18 18 18 19 19 19 18 18 18 19 19 19 19
28 28 28 29 28 27 27 27 26 26 25 24 24 24 24 24 23 23 22 22 21 21 21 21 20 20 19 19 20 20 20 20 20 20 20 20 20 20 20 20 19 19 19
29 29 29 29 30 29 29 28 27 27 27 26 26 25 25 25 24 24 24 24 24 23 23 23 23 23 22 22 22 23 22 22 21 21 21 21 21 21 21 21 21 21 21
30 31 30 31 31 31 30 30 29 29 29 28 27 27 26 26 25 25 26 27 26 25 25 25 25 25 25 25 25 25 25 25 24 23 22 22 22 22 22 22 22 22 22
32 31 31 32 32 32 32 32 31 30 30 29 28 28 28 28 27 27 27 26 26 27 27 27 27 28 28 28 27 27 27 26 25 24 24 24 24 24 24 24 24 24 24
32 33 32 33 33 33 33 33 32 32 32 31 30 29 29 29 28 28 28 28 27 27 27 27 27 28 28 28 28 27 26 27 26 26 26 26 27 27 26 26 25 26 26
34 34 35 34 34 34 34 34 34 34 33 32 32 31 31 31 30 30 29 29 29 29 29 29 29 29 29 28 28 29 29 29 30 30 29 28 29 28 28 27 27 27 27
35 35 35 35 35 34 33 33 34 34 33 33 33 32 32 32 31 31 31 31 31 31 31 31 31 31 30 30 30 31 31 32 32 32 32 31 31 31 31 29 29 28 28